Location: Veytaux
(46.4185°N, 6.9320°E)
Time: 09:00:19
(UTC+00:00)

Cosmos 371 Rocket - Pass Details

Date: 27 May 2022
Orbit: 684 x 697 km, 74.0° (Epoch: 01 July)

Event Time Altitude Azimuth Distance (km) Brightness Sun altitude
Exits shadow 00:06:59 56° 176° (S) 823 3.3 -21.8°
Maximum altitude 00:07:55 75° 110° (ESE) 722 3.2 -21.8°
Drops below altitude 10° 00:12:46 10° 25° (NNE) 2,157 6.9 -21.6°
Sets 00:15:06 0° 24° (NNE) 3,076 8.0 -21.5°
